SL-16 R/B

Satellite information

Favourite Embed

Satellite Type and Status

ROCKET BODYIN ORBIT

Key statistics

Satellite SL-16 R/B at a glance.

Uptime

11002

Days in orbit

Revolutions

≈ 14.2

Per day

Orbit

LEO

Low Earth Orbit

Inclination

71.0

Latest

Satellite identification and parameters

Extended collection of information and parameters for SL-16 R/B.

Object identification

Identified? True

Debris? False

Object name: SL-16 R/B

International designator: 1995-058B

Object number (NORAD): 23705

Object ID (CCSDS): 23705

Country: COMMONWEALTH OF INDEPENDENT STATES (CIS)

Current information (Y/N): Y

RCS size: LARGE

Orbital parameters

Period: 101.732 minutes

Inclination: 71.0226 deg

SMA: 7218.803 km

Apoapsis: 851.483 km

Periapsis: 829.852 km

RAAN: 1.2326 deg

Eccentricy: 0.00149826

Argument of periapsis: 254.5464 deg

Mean anomaly: 105.4005 deg

Mean motion: 14.15484128 rev/day

Mean motion (dot): 0.00000012 rev/day2

B* drag term: 0.000030748268 1/REarth

Two-line elements (TLE)

Creation date: Dec. 14, 2025, 3:07 a.m.

Reference frame: TEME

Reference center: EARTH

Epoch: Dec. 13, 2025, 11:43 a.m. UTC

TLE line 0: 0 SL-16 R/B

TLE line 1: 1 23705U 95058B 25347.48839285 .00000012 00000-0 30748-4 0 9991

TLE line 2: 2 23705 71.0226 1.2326 0014983 254.5464 105.4005 14.15484128555655

Live tracking on map

Real-time ground track for satellite SL-16 R/B.

In-orbit conjunctions

A list of the most updated potential collisions computed for object SL-16 R/B.

Target Orbit TCA Probability of collision Miss distance Type
COSMOS 2251 DEB LEO 2025-10-24 01:09:50 0.0001071739 606.0 (m) DEBRIS
FENGYUN 1C DEB SSO 2024-10-15 22:34:30 0.0004827751 168.0 (m) DEBRIS

Associated space launch

Second generation ELING satellite

SL-16 R/B was lifted into orbit during the mission ‘Zenit-2 | Tselina-2 17’, on board a Zenit-2 space rocket.

The launch took place on Oct. 31, 1995, 8:19 p.m. from 45/1.

For more information about the launch, click the button.

Launch to space Zenit-2 | Tselina-2 17
Zenit-2 | Tselina-2 17

Agency: N/A

Status: Launch Successful

Launch date: Oct. 31, 1995, 8:19 p.m. UTC

Rocket: Zenit-2

Launch pad: 45/1

Location: Baikonur Cosmodrome, Republic of Kazakhstan

...

Latest news about this satellite

There are no fresh news available about this satellite. Check back as we update our databases every day.


Newsletter sign-up

Weekly statistics, charts and insights to help you stay on top of the space industry.